Overview Statistics Trail Chart Weather Telemetry Raw packets
 

This is the latest recevied weather packets stored in our database for station/object KC9DRE. If no packets are shown the sender has not sent any weather packets the latest 10 day(s).

<< 23 24 25 26 27 28 29 >>
Time Temp. Humidity Pressure Rain* Wind** Luminosity Snow
1777752798 11.67° C 52% 1017.8 hPa 0 mm - 105 W/m² -
1777752494 11.67° C 52% 1017.7 hPa 0 mm - 92 W/m² -
1777752190 12.22° C 51% 1017.9 hPa 0 mm - 103 W/m² -
1777751889 12.22° C 51% 1017.8 hPa 0 mm - 100 W/m² -
1777751585 12.78° C 48% 1017.8 hPa 0 mm - 108 W/m² -
1777751281 12.78° C 51% 1017.9 hPa 0 mm - 116 W/m² -
1777750979 12.78° C 54% 1017.8 hPa 0 mm - 125 W/m² -
1777750674 12.78° C 52% 1017.7 hPa 0 mm - 135 W/m² -
1777750372 12.78° C 49% 1017.7 hPa 0 mm - 132 W/m² -
1777750071 13.33° C 50% 1017.8 hPa 0 mm - 189 W/m² -
1777749769 12.78° C 54% 1017.7 hPa 0 mm - 224 W/m² -
1777749466 13.33° C 48% 1018 hPa 0 mm - 121 W/m² -
1777749164 14.44° C 47% 1017.8 hPa 0 mm - 122 W/m² -
1777748861 14.44° C 45% 1017.9 hPa 0 mm - 281 W/m² -
1777748558 13.33° C 50% 1017.8 hPa 0 mm - 907 W/m² -
1777748253 12.78° C 50% 1018 hPa 0 mm - 706 W/m² -
1777747950 13.89° C 49% 1017.8 hPa 0 mm - 184 W/m² -
1777747646 13.89° C 47% 1017.8 hPa 0 mm - 164 W/m² -
1777747342 13.89° C 53% 1017.9 hPa 0 mm - 1002 W/m² -
1777747039 13.89° C 49% 1018 hPa 0 mm - 494 W/m² -
1777746735 13.33° C 56% 1018 hPa 0 mm - 811 W/m² -
1777746430 13.89° C 50% 1018 hPa 0 mm - 298 W/m² -
1777746126 12.78° C 56% 1018.1 hPa 0 mm - 992 W/m² -
1777745823 13.33° C 51% 1018.3 hPa 0 mm - 184 W/m² -
1777745522 14.44° C 47% 1018.2 hPa 0 mm - 211 W/m² -

* Rain latest hour (hover to see other rain measurements)
** Current wind speed in m/s (hover to see current wind gust speed)